Tracking 30995 objects as of 5-Jul-2025
HD Live streaming from Space Station
objects crossing your sky now

FENGYUN 1C DEB

Track FENGYUN 1C DEB now!
10-day predictions


NORAD ID: 30516
Int'l Code: 1999-025AJE
Perigee: 762.5 km
Apogee: 777.2 km
Inclination: 98.9 °
Period: 100.1 minutes
Semi major axis: 7140 km
RCS: 0.0157 m2 (small)
Launch date: May 10, 1999
Source: People's Republic of China (PRC)
Launch site: Taiyaun Space Center, China (TSC)

Note: This is SATELLITE DEBRIS
Your satellite tracking list
STARLINK-5360
Track 1 satellite(s)




NASA's NSSDC Master Catalog

Two Line Element Set (TLE):
1 30516U 99025AJE 25186.53097828  .00004558  00000-0  14987-2 0  9997
2 30516  98.8560 285.1581 0010334  69.0307  59.1520 14.38726028954099
Source of the keplerian elements: AFSPC